User: anonymous   Login
Location: Columbia
(38.9520°N, 92.3340°W)
Time: 00:29:01
(UTC-06:00)
Language:

SJ-11-01 - Orbit

View from above orbital plane
View from above orbital plane
View from above satellite
View from above satellite

Ground track
Ground track

The orbit data is extracted from the following two-line orbital elements,

1 36088U 09061A   15063.78542213  .00000549  00000-0  12368-3 0  9999
2 36088 098.2536 110.3196 0010550 344.2245 015.8619 14.60171223282768
Epoch (UTC): 04 March 2015 18:51:00
Eccentricity: 0.0010550
inclination: 98.2536°
perigee height: 685 km
apogee height: 700 km
right ascension of ascending node: 110.3196°
argument of perigee: 344.2245°
revolutions per day: 14.60171223
mean anomaly at epoch: 15.8619°
orbit number at epoch: 28276

The dashed part of the orbit path shows where the satellite is in the earth's shadow,  

DLR